Location: ????
(55.5675°N, 37.6272°E)
Time: 20:25:25
(UTC+00:00)

Cosmos 1802 Rocket - Pass Details

Date: 14 April 2026
Orbit: 952 x 1012 km, 82.9° (Epoch: 16 May)

Event Time Altitude Azimuth Distance (km) Brightness Sun altitude
Exits shadow 21:34:58 54° 203° (SSW) 1,199 4.1 -24.8°
Maximum altitude 21:36:34 82° 282° (WNW) 1,009 4.0 -24.8°
Drops below altitude 10° 21:42:54 10° 10° (N) 2,746 7.4 -24.7°
Sets 21:45:24 0° 12° (NNE) 3,689 8.4 -24.7°
